Location: Newark
(33.1119°N, 7.4058°W)
Time: 11:19:24
(UTC+00:00)

Hubble Space Telescope - Pass Details

Date: 19 November 2019
Orbit: 536 x 540 km, 28.5° (Epoch: 06 December)

Event Time Altitude Azimuth Distance (km) Brightness Sun altitude
Rises 19:39:34 0° 249° (WSW) 2,669 5.5 -27.9°
Reaches altitude 10° 19:41:55 10° 241° (WSW) 1,780 4.2 -28.3°
Enters shadow 19:44:02 26° 222° (SW) 1,084 2.7 -28.8°
